This demonstration page uses our WeatherBlox Daily Observations layout. Learn more.

Hourly Observations for December 25, 2018

Temp ( °F °C ) Dew Point ( °F °C ) Humidity (%) Winds ( mph kmh ) Pressure ( in mb ) Visibility ( mi km ) Precip ( " mm )
12:15 am 00:15 Partly Cloudy with Mist and Fog 22 -5.5 22 -5.5 100 100 Calm 30.15 1021 4 6.43736 0 0
12:35 am 00:35 Cloudy with Freezing Fog 23 -5.1 23 -5.1 100 100 Calm 30.15 1021 0.5 0.80467 0 0
12:55 am 00:55 Cloudy with Freezing Fog 22 -5.6 22 -5.6 100 100 Calm 30.15 1021 0.5 0.80467 0 0
1:15 am 01:15 Cloudy with Mist and Fog 22 -5.6 22 -5.6 100 100 Calm 30.15 1021 5 8.0467 0 0
1:35 am 01:35 Cloudy with Freezing Fog 22 -5.6 22 -5.6 100 100 W 3 6 30.18 1022 0.25 0.402335 0 0
1:55 am 01:55 Cloudy with Freezing Fog 23 -4.8 23 -4.8 100 100 Calm 30.18 1022 0.5 0.80467 0 0
2:15 am 02:15 Cloudy with Freezing Fog 22 -5.3 22 -5.3 100 100 W 3 6 30.18 1022 0.25 0.402335 0 0
2:35 am 02:35 Cloudy with Freezing Fog 23 -5.2 23 -5.2 100 100 Calm 30.18 1022 0.5 0.80467 0 0
2:55 am 02:55 Cloudy with Mist and Fog N/A N/A N/A W 3 6 N/A 0.75 1.207005 0 0
3:15 am 03:15 Mostly Cloudy with Haze N/A N/A N/A Calm N/A 4 6.43736 0 0
3:35 am 03:35 Clear N/A N/A N/A Calm N/A 7 11.26538 0 0
3:55 am 03:55 Mostly Cloudy with Mist and Fog N/A N/A N/A SE 5 7 N/A 2.5 4.02335 0 0
4:15 am 04:15 Cloudy with Mist and Fog N/A N/A N/A Calm N/A 0.75 1.207005 0 0
4:35 am 04:35 Cloudy with Mist and Fog N/A N/A N/A SSW 3 6 N/A 1.5 2.41401 0 0
4:55 am 04:55 Cloudy with Mist and Fog N/A N/A N/A Calm N/A 1.5 2.41401 0 0
5:15 am 05:15 Cloudy with Fog N/A N/A N/A Calm N/A 0.25 0.402335 0 0
5:35 am 05:35 Cloudy with Fog N/A N/A N/A Calm N/A 0.25 0.402335 0 0
5:55 am 05:55 Cloudy with Mist and Fog N/A N/A N/A Calm N/A 0.75 1.207005 0 0
6:15 am 06:15 Cloudy with Fog N/A N/A N/A Calm N/A 0.5 0.80467 0 0
6:35 am 06:35 Cloudy with Fog N/A N/A N/A Calm N/A 0.5 0.80467 0 0
6:55 am 06:55 Cloudy with Fog N/A N/A N/A Calm N/A 0.5 0.80467 0 0
7:15 am 07:15 Cloudy with Fog N/A N/A N/A Calm N/A 0.25 0.402335 0 0
7:35 am 07:35 Cloudy with Mist and Fog N/A N/A N/A Calm N/A 0.75 1.207005 0 0
7:55 am 07:55 Cloudy with Mist and Fog N/A N/A N/A Calm N/A 1.75 2.816345 0 0
8:15 am 08:15 Cloudy with Fog N/A N/A N/A Calm N/A 0.5 0.80467 0 0
8:35 am 08:35 Cloudy with Fog N/A N/A N/A Calm N/A 0.25 0.402335 0 0
8:55 am 08:55 Cloudy with Mist and Fog N/A N/A N/A Calm N/A 1.75 2.816345 0 0
9:15 am 09:15 Cloudy with Fog N/A N/A N/A Calm N/A 0.5 0.80467 0 0
9:35 am 09:35 Sunny with Mist and Fog N/A N/A N/A Calm N/A 3 4.82802 0 0
9:55 am 09:55 Hazy N/A N/A N/A ENE 3 6 N/A 4 6.43736 0 0
10:15 am 10:15 Sunny N/A N/A N/A E 5 7 N/A 7 11.26538 0 0
10:35 am 10:35 Hazy N/A N/A N/A Calm N/A 5 8.0467 0 0
10:55 am 10:55 Mostly Cloudy with Haze N/A N/A N/A Calm N/A 4 6.43736 0 0
11:15 am 11:15 Mostly Cloudy with Haze N/A N/A N/A S 3 6 N/A 5 8.0467 0 0
11:35 am 11:35 Partly Cloudy N/A N/A N/A Calm N/A 10 16.0934 0 0
11:55 am 11:55 Sunny 33 0.5 33 0.5 100 100 SE 3 6 30.24 1024 10 16.0934 0 0
12:15 pm 12:15 Partly Cloudy 35 1.9 35 1.9 100 100 SSE 5 7 30.21 1023 10 16.0934 0 0
12:35 pm 12:35 Partly Cloudy 37 3 37 3 100 100 S 6 9 30.21 1023 10 16.0934 0 0
12:55 pm 12:55 Sunny 40 4.2 37 2.8 91 91 S 7 11 30.18 1022 10 16.0934 0 0
1:15 pm 13:15 Sunny 41 5 36 2 81 81 S 7 11 30.15 1021 10 16.0934 0 0
1:35 pm 13:35 Sunny 40 4.7 35 1.6 81 81 S 6 9 30.15 1021 10 16.0934 0 0
1:55 pm 13:55 Sunny 41 5.1 35 1.5 78 78 S 7 11 30.15 1021 10 16.0934 0 0
2:15 pm 14:15 Sunny 42 5.4 35 1.4 76 76 S 7 11 30.15 1021 10 16.0934 0 0
2:35 pm 14:35 Sunny 41 5.1 34 1 75 75 SSE 6 9 30.15 1021 10 16.0934 0 0
2:55 pm 14:55 Sunny 41 5.2 34 1.1 75 75 SSE 7 11 30.15 1021 10 16.0934 0 0
3:15 pm 15:15 Sunny 42 5.5 34 1 73 73 SE 7 11 30.15 1021 10 16.0934 0 0
3:35 pm 15:35 Sunny 42 5.5 34 1 73 73 SSE 6 9 30.15 1021 10 16.0934 0 0
3:55 pm 15:55 Sunny 42 5.3 33 0.7 73 73 SE 8 13 30.18 1022 10 16.0934 0 0
4:15 pm 16:15 Sunny 41 4.9 34 1.2 77 77 SE 6 9 30.18 1022 10 16.0934 0 0
4:35 pm 16:35 Sunny 39 3.7 34 0.9 82 82 SE 7 11 30.21 1023 10 16.0934 0 0
4:55 pm 16:55 Sunny 36 2 32 0.1 87 87 ESE 7 11 30.18 1022 10 16.0934 0 0
5:15 pm 17:15 Sunny 33 0.6 32 -0.1 95 95 ESE 6 9 30.18 1022 10 16.0934 0 0
5:35 pm 17:35 Clear 32 0 31 -0.4 97 97 ESE 8 13 30.21 1023 10 16.0934 0 0
5:55 pm 17:55 Clear 32 0 31 -0.3 98 98 E 8 13 30.21 1023 10 16.0934 0 0
6:15 pm 18:15 Clear 31 -0.3 31 -0.5 99 99 ESE 7 11 30.24 1024 10 16.0934 0 0
6:35 pm 18:35 Clear 31 -0.7 31 -0.7 100 100 ESE 8 13 30.24 1024 7 11.26538 0 0
6:55 pm 18:55 Partly Cloudy 31 -0.6 31 -0.6 100 100 E 8 13 30.24 1024 7 11.26538 0 0
7:15 pm 19:15 Mostly Cloudy 32 0 32 0 100 100 E 9 15 30.24 1024 10 16.0934 0 0
7:35 pm 19:35 Cloudy 33 0.5 33 0.4 99 99 E 10 17 30.24 1024 10 16.0934 0 0
7:55 pm 19:55 Cloudy 32 0.2 32 0.2 100 100 E 12 19 30.24 1024 7 11.26538 0 0
8:15 pm 20:15 Cloudy with Mist and Fog 32 0.1 32 0.1 100 100 E 13 20 30.24 1024 5 8.0467 0 0
8:35 pm 20:35 Cloudy with Mist and Fog 32 0 32 0 100 100 E 14 22 30.24 1024 4 6.43736 0 0
8:55 pm 20:55 Cloudy with Mist and Fog 32 0 32 0 100 100 E 15 24 30.24 1024 3 4.82802 0 0
9:15 pm 21:15 Cloudy with Mist and Fog 32 0 32 0 100 100 E 14 22 30.24 1024 2.5 4.02335 0 0
9:35 pm 21:35 Cloudy with Mist and Fog 32 0 32 0 100 100 E 12 19 30.24 1024 1.75 2.816345 0 0
9:55 pm 21:55 Cloudy with Mist and Fog 32 0 32 0 100 100 E 12 19 30.24 1024 1.5 2.41401 0 0
10:15 pm 22:15 Cloudy with Fog 32 -0.1 32 -0.1 100 100 E 13 20 30.24 1024 0.5 0.80467 0 0
10:35 pm 22:35 Cloudy with Fog 32 -0.1 32 -0.1 100 100 E 15 24 30.24 1024 0.5 0.80467 0 0
10:55 pm 22:55 Cloudy with Fog 32 0 32 0 100 100 E 13 20 30.24 1024 0.5 0.80467 0 0
11:15 pm 23:15 Cloudy with Fog 32 0 32 0 100 100 E 9 15 30.24 1024 0.5 0.80467 0 0
11:35 pm 23:35 Cloudy with Fog 32 0 32 0 100 100 E 8 13 30.24 1024 0.5 0.80467 0 0
11:55 pm 23:55 Cloudy with Mist and Fog 32 0.2 32 0.2 100 100 E 8 13 30.24 1024 0.75 1.207005 0 0

Powered by AerisWeather